This is the latest recevied weather packets stored in our database for station/object W7WSW. If no packets are shown the sender has not sent any weather packets the latest 1 day(s).
| Time | Temp. | Humidity | Pressure | Rain* | Wind** | Luminosity | Snow |
|---|---|---|---|---|---|---|---|
| 1777996319 | 13.33° C | 83% | 1014.6 hPa | 0 mm | 1.34 m/s, 245° | 105 W/m² | - |
| 1777996259 | 13.33° C | 83% | 1014.6 hPa | 0 mm | 1.34 m/s, 241° | 105 W/m² | - |
| 1777996199 | 12.78° C | 83% | 1014.6 hPa | 0 mm | 1.34 m/s, 273° | 111 W/m² | - |
| 1777996138 | 12.78° C | 83% | 1014.6 hPa | 0 mm | 1.34 m/s, 241° | 120 W/m² | - |
| 1777996101 | 12.78° C | 83% | 1014.6 hPa | 0 mm | 1.34 m/s, 241° | 128 W/m² | - |
| 1777996017 | 12.78° C | 83% | 1014.5 hPa | 0 mm | 1.34 m/s, 241° | 135 W/m² | - |
| 1777995956 | 12.78° C | 83% | 1014.6 hPa | 0 mm | 1.34 m/s, 250° | 139 W/m² | - |
| 1777995895 | 12.78° C | 83% | 1014.6 hPa | 0 mm | 1.34 m/s, 247° | 137 W/m² | - |
| 1777995832 | 13.33° C | 83% | 1014.5 hPa | 0 mm | 1.34 m/s, 263° | 127 W/m² | - |
| 1777995767 | 12.78° C | 83% | 1014.5 hPa | 0 mm | 1.34 m/s, 255° | 123 W/m² | - |
| 1777995707 | 12.78° C | 83% | 1014.5 hPa | 0 mm | 1.34 m/s, 277° | 121 W/m² | - |
| 1777995647 | 12.78° C | 83% | 1014.5 hPa | 0 mm | 1.34 m/s, 271° | 125 W/m² | - |
| 1777995587 | 12.78° C | 83% | 1014.5 hPa | 0 mm | 1.34 m/s, 240° | 134 W/m² | - |
| 1777995527 | 12.78° C | 83% | 1014.5 hPa | 0 mm | 1.34 m/s, 237° | 144 W/m² | - |
| 1777995465 | 12.78° C | 83% | 1014.4 hPa | 0 mm | 1.34 m/s, 269° | 149 W/m² | - |
| 1777995405 | 12.78° C | 83% | 1014.4 hPa | 0 mm | 1.34 m/s, 269° | 149 W/m² | - |
| 1777995345 | 12.78° C | 83% | 1014.4 hPa | 0 mm | 1.34 m/s, 242° | 146 W/m² | - |
| 1777995283 | 12.78° C | 83% | 1014.4 hPa | 0 mm | 1.34 m/s, 263° | 144 W/m² | - |
| 1777995220 | 12.78° C | 83% | 1014.4 hPa | 0 mm | 1.34 m/s, 261° | 135 W/m² | - |
| 1777995189 | 12.78° C | 83% | 1014.4 hPa | 0 mm | 1.34 m/s, 266° | 128 W/m² | - |
| 1777995095 | 12.78° C | 83% | 1014.4 hPa | 0 mm | 0.89 m/s, 243° | 137 W/m² | - |
| 1777995035 | 12.78° C | 83% | 1014.4 hPa | 0 mm | 0.89 m/s, 248° | 141 W/m² | - |
| 1777994975 | 12.78° C | 83% | 1014.4 hPa | 0 mm | 0.89 m/s, 261° | 135 W/m² | - |
| 1777994914 | 12.78° C | 84% | 1014.4 hPa | 0 mm | 0.45 m/s, 254° | 127 W/m² | - |
| 1777994853 | 12.78° C | 84% | 1014.4 hPa | 0 mm | 0.45 m/s, 263° | 120 W/m² | - |
* Rain latest hour (hover to see other rain measurements)
** Current wind speed in m/s (hover to see current wind gust speed)